Billings, MT

6:11 PM MST on February 07, 2016 (GMT -0700)
Billings Logan International

Weather History for KBIL - October, 2014

Change the Weather History Date:

Sunday, October 5, 2014

  Actual Average Record
Temperature  
Mean Temperature 61 °F 52 °F  
Max Temperature 72 °F 64 °F 85 °F (1958)
Min Temperature 49 °F 41 °F 24 °F (2000)
Degree Days  
Heating Degree Days 4 13  
Month to date heating degree days 61 62  
Since 1 July heating degree days 302 291  
Cooling Degree Days 0 0  
Month to date cooling degree days 0 0  
Year to date cooling degree days 618 633  
Growing Degree Days 13 (Base 50)    
Moisture  
Dew Point 37 °F    
Average Humidity 39    
Maximum Humidity 51    
Minimum Humidity 27    
Precipitation  
Precipitation T in 0.05 in 1.10 in (1946)
Month to date precipitation 0.04 0.24  
Year to date precipitation 12.50 11.59  
Snow  
Snow 0.00 in 0.10 in 4.60 in (2009)
Month to date snowfall 0.0 0.6  
Since 1 July snowfall T 1.7  
Since 1 September snowfall T 1.7  
Snow Depth 0.00 in    
Sea Level Pressure  
Sea Level Pressure 29.94 in    
Wind  
Wind Speed 13 mph (NW)    
Max Wind Speed 28 mph    
Max Gust Speed 34 mph    
Visibility 10 miles    
Events      
T = Trace of Precipitation, MM = Missing Value Source: NWS Daily Summary

Daily Weather History Graph

Daily Weather History Graph

Search for Another Location

Airport or City:

Trip Planner

Search our weather history database for the weather conditions in past years. The results will help you decide how hot, cold, wet, or windy it might be!

Date:

Astronomy

Oct. 05, 2014 Rise Set
Actual Time 7:17 AM MDT 6:46 PM MDT
Civil Twilight 6:47 AM MDT 7:16 PM MDT
Nautical Twilight 6:13 AM MDT 7:50 PM MDT
Astronomical Twilight 5:38 AM MDT 8:25 PM MDT
Moon 5:13 PM MDT (10/5) 3:48 AM MDT (10/5)
Length of Visible Light 12h 28m
Length of Day
11h 28m
Waxing Gibbous, 90% of the Moon is Illuminated
Oct 5
Waxing Gibbous
Oct 8
Full
Oct 15
Last Quarter
Oct 23
New
Oct 30
First Quarter

Hourly Weather History & Observations

Time (MDT) Temp. Dew Point Humidity Pressure Visibility Wind Dir Wind Speed Gust Speed Precip Events Conditions
12:53 AM 57.9 °F 37.9 °F 47% 29.91 in 10.0 mi WNW 11.5 mph - N/A   Mostly Cloudy
1:53 AM 60.1 °F 39.0 °F 46% 29.91 in 10.0 mi NW 13.8 mph - 0.00 in   Overcast
2:53 AM 59.0 °F 39.0 °F 48% 29.90 in 10.0 mi NNW 12.7 mph - N/A   Mostly Cloudy
3:53 AM 57.0 °F 39.0 °F 51% 29.91 in 10.0 mi WSW 6.9 mph - N/A   Overcast
4:53 AM 60.1 °F 37.9 °F 44% 29.91 in 10.0 mi WNW 11.5 mph - N/A   Overcast
5:53 AM 59.0 °F 37.9 °F 46% 29.93 in 10.0 mi NW 10.4 mph - N/A   Mostly Cloudy
6:53 AM 57.0 °F 39.0 °F 51% 29.95 in 10.0 mi NW 10.4 mph - N/A   Scattered Clouds
7:53 AM 59.0 °F 37.4 °F 45% 30.02 in 10.0 mi NW 16.1 mph - N/A   Mostly Cloudy
8:53 AM 61.0 °F 37.9 °F 42% 29.98 in 10.0 mi NW 23.0 mph 31.1 mph N/A   Mostly Cloudy
9:53 AM 62.1 °F 37.9 °F 41% 30.01 in 10.0 mi NW 19.6 mph 27.6 mph N/A   Mostly Cloudy
10:53 AM 64.9 °F 37.0 °F 36% 30.00 in 10.0 mi NW 23.0 mph 33.4 mph N/A   Partly Cloudy
11:53 AM 68.0 °F 36.0 °F 31% 29.99 in 10.0 mi NW 27.6 mph 33.4 mph N/A   Scattered Clouds
12:53 PM 71.1 °F 37.0 °F 29% 29.97 in 10.0 mi NNW 17.3 mph 25.3 mph N/A   Scattered Clouds
1:53 PM 71.1 °F 37.0 °F 29% 29.94 in 10.0 mi NW 16.1 mph 29.9 mph N/A   Scattered Clouds
2:53 PM 71.1 °F 36.0 °F 28% 29.93 in 10.0 mi NW 24.2 mph 29.9 mph N/A   Scattered Clouds
3:53 PM 70.0 °F 36.0 °F 29% 29.93 in 10.0 mi NW 19.6 mph 28.8 mph N/A   Mostly Cloudy
4:53 PM 69.1 °F 36.0 °F 30% 29.92 in 10.0 mi North 15.0 mph - N/A   Mostly Cloudy
5:53 PM 68.0 °F 36.0 °F 31% 29.91 in 10.0 mi North 6.9 mph - N/A   Scattered Clouds
6:53 PM 62.1 °F 33.1 °F 34% 29.92 in 10.0 mi NE 5.8 mph - N/A   Scattered Clouds
7:53 PM 61.0 °F 34.0 °F 36% 29.93 in 10.0 mi NE 4.6 mph - N/A   Scattered Clouds
8:53 PM 57.9 °F 35.1 °F 42% 29.92 in 10.0 mi Calm Calm - N/A   Partly Cloudy
9:53 PM 57.0 °F 36.0 °F 45% 29.91 in 10.0 mi SSW 9.2 mph - N/A   Partly Cloudy
10:53 PM 55.0 °F 36.0 °F 49% 29.90 in 10.0 mi SW 5.8 mph - N/A   Partly Cloudy
11:53 PM 54.0 °F 36.0 °F 51% 29.89 in 10.0 mi SW 8.1 mph - N/A   Scattered Clouds